Preview of NWS' New Version of Forecast
This preview is not operational and should not be used for support decisions.

Regional Weather Roundup (RWR)

Issued by National Weather Service (NWS)

                            
000
ASUS43 KTOP 231308
RWRKS 

WEATHER ROUNDUP FOR KANSAS
NATIONAL WEATHER SERVICE GOODLAND KS
700 AM CST SAT FEB 23 2019

NOTE:  "FAIR" INDICATES FEW OR NO CLOUDS BELOW 12,000 FEET WITH NO
SIGNIFICANT WEATHER AND/OR OBSTRUCTIONS TO VISIBILITY.

KSZ001>006-013>018-027>032-041>047-231400-
NORTHWEST KANSAS
  
CITY           SKY/WX    TMP DP  RH WIND       PRES   REMARKS
GOODLAND       SNOW      27  27 100 N17G28    29.72F VSB 1/2 WCI  14  
HAYS           CLOUDY    32  32 100 NE13      29.72F FOG     WCI  22  
HILL CITY      FOG       31  31 100 N14       29.77F VSB 1/4 WCI  21  
RUSSELL        FOG       32  32 100 N10       29.70F VSB 1/2 WCI  24  
$$

KSZ061>065-074>080-084>089-231400-
SOUTHWEST KANSAS
  
CITY           SKY/WX    TMP DP  RH WIND       PRES   REMARKS
DODGE CITY     LGT SNOW  32  32 100 N8        29.64F FOG              
ELKHART        LGT SNOW  37  37 100 E16       29.52F WCI  27          
GARDEN CITY    LGT SNOW  31  31 100 NE22G29   29.60F FOG     WCI  18  
GREAT BEND     CLOUDY    33  33 100 E9        29.73R                  
LIBERAL        LGT RAIN  36  35  96 NE15      29.56F WCI  27          
PRATT          LGT RAIN  35  34  94 E13       29.67F WCI  27          
$$

KSZ066>073-081>083-090>101-231400-
SOUTHEAST KANSAS
  
CITY           SKY/WX    TMP DP  RH WIND       PRES   REMARKS
CHANUTE        CLOUDY    44  42  93 NE3       29.78F FOG              
COFFEYVILLE    FOG       44  44 100 N3        29.76F VSB 1/2          
HUTCHINSON     CLOUDY    35  35 100 NE12      29.70F FOG     WCI  27  
MEDICINE LODGE   N/A     37  37 100 NE12      29.60F WCI  29          
NEWTON         FOG       35  35 100 E8        29.74S VSB 1            
PARSONS        CLOUDY    43  43 100 NE5       29.78F FOG              
WICHITA INTL   FOG       40  40 100 NE12      29.65F VSB 1/2 WCI  33  
WICHITA JABRA  FOG       38  37  97 NE8       29.68F VSB 1/2          
WICHITA MCCONL CLOUDY    39  39 100 N10       29.65  FOG     WCI  32  
WINFIELD       CLOUDY    42  41  96 E10       29.67F FOG              
$$

KSZ007>012-019>026-033>040-048>060-102>105-231400-
NORTHEAST KANSAS
  
CITY           SKY/WX    TMP DP  RH WIND       PRES   REMARKS
CONCORDIA      CLOUDY    32  32 100 N5        29.81F FOG              
EMPORIA        FOG       35  35 100 E6        29.79F VSB 1/2          
LAWRENCE       CLOUDY    36  34  92 SE6       29.84R FOG              
MANHATTAN      CLOUDY    35  35 100 E5        29.84R FOG              
MARYSVILLE     DRIZZLE   32  32 100 CALM      29.83S                  
OLATHE IND     CLOUDY    35  35 100 E8        29.85R FOG              
OLATHE EXE     CLOUDY    34  34 100 SE6       29.84R FOG              
SALINA         MIX PCPN  34  34 100 NE9       29.77F FOG              
TOPEKA BILLARD CLOUDY    36  35  96 SE3       29.85R FOG              
TOPEKA FORBES  CLOUDY    36  35  96 SE3       29.83R FOG              
$$